RH
4 12 16 20 28 35 34 24 15 22 55 64 64 72 89 97 79 86 100 99 100 96 88 75 74 70 62 57 56 56 56 55 53 50 42 37 42 47 52 53 53 51 53 55 56 57 58 58 56
12 13 19 21 35 36 30 22 37 46 63 59 64 73 81 92 99 100 100 99 99 99 91 69 73 72 65 61 61 62 63 62 60 58 55 49 44 46 53 58 59 56 50 55 57 56 55 55 54
11 12 17 32 39 34 29 17 27 47 58 38 55 65 74 93 95 99 99 91 99 99 87 72 74 76 71 69 71 70 71 70 68 64 62 60 58 55 54 57 63 63 62 52 54 56 55 51 50
9 14 19 28 28 23 17 15 23 23 30 37 55 74 74 85 90 91 91 82 88 86 83 78 85 82 79 72 67 62 68 74 75 73 70 67 66 67 66 62 60 60 60 61 56 57 60 53 48
8 12 25 30 27 22 18 13 17 34 42 51 49 76 81 84 85 84 81 82 85 87 88 92 86 78 66 52 42 46 62 67 70 76 77 75 73 71 70 69 69 68 68 65 64 60 60 61 54
8 15 25 26 21 17 14 12 26 31 41 50 61 66 71 80 82 79 80 84 89 96 93 85 74 64 50 39 31 26 29 32 40 52 64 77 80 80 79 76 74 74 74 75 73 69 64 62 60
10 16 17 18 17 15 14 13 20 30 34 44 47 64 75 78 77 79 83 88 84 76 70 65 60 50 31 14 12 11 11 11 12 14 24 34 54 78 81 81 82 80 78 77 79 80 76 73 68
8 17 15 16 17 17 12 12 17 22 30 32 42 69 72 71 78 83 76 60 51 44 36 26 18 14 12 11 10 11 10 10 10 11 11 12 12 12 16 35 69 82 83 82 82 82 84 84 83
9 16 19 15 14 14 10 13 23 27 27 36 44 44 52 69 74 52 39 32 26 22 19 16 15 14 12 11 12 12 12 11 12 12 12 12 12 12 12 13 13 13 21 40 72 82 80 84 89
11 19 15 12 10 10 9 10 17 25 36 49 50 49 60 60 46 42 39 35 29 21 17 15 16 14 14 14 15 14 14 14 14 13 12 13 12 12 12 13 13 14 15 15 15 21 44 75 83
11 15 12 10 9 8 9 9 15 22 24 38 51 53 49 40 39 39 39 35 33 26 22 22 21 19 17 17 16 16 15 16 17 16 14 14 14 14 13 14 14 15 14 15 15 15 18 22 52
16 12 12 11 9 8 8 9 22 21 20 22 40 42 39 39 41 39 36 35 33 33 30 26 24 23 20 21 20 18 17 18 19 18 16 17 17 16 16 15 16 16 16 16 15 15 16 17 22
15 14 11 10 10 10 8 9 21 24 23 29 34 37 38 38 36 36 36 36 35 36 33 27 25 24 24 24 25 23 22 21 20 22 20 19 18 19 18 19 19 19 18 18 17 16 16 17 19
14 15 14 12 11 10 9 12 16 25 26 30 32 34 33 30 32 34 36 36 37 38 36 30 28 27 26 26 26 26 27 27 29 26 23 23 23 23 23 23 23 21 20 20 19 18 17 16 19
14 16 16 14 11 11 9 11 14 22 27 29 30 29 28 29 31 33 37 40 40 40 40 38 34 33 30 29 30 30 32 34 32 31 30 30 30 30 30 28 28 28 26 26 25 25 26 24 23
18 17 20 14 11 10 9 14 12 22 25 27 26 28 29 32 32 34 37 40 43 42 40 38 37 38 38 36 37 38 37 36 37 40 42 42 40 37 35 35 35 32 32 32 33 33 32 33 32
25 23 20 18 12 11 11 13 16 21 23 25 26 28 33 36 38 40 42 42 42 42 40 37 38 38 37 38 38 39 41 42 44 44 46 47 46 44 43 42 40 40 40 40 38 39 44 43 39
23 23 23 22 18 14 13 14 22 25 25 25 25 30 39 41 41 40 42 43 41 43 41 39 41 43 39 39 40 42 43 44 47 46 44 46 49 48 49 50 50 50 52 52 56 60 60 69 66
24 23 25 21 16 17 15 16 17 25 26 26 27 33 41 40 44 44 46 48 45 47 48 47 49 42 34 31 32 36 39 46 46 47 48 45 47 51 55 59 59 66 71 76 82 88 97 99 98
21 23 26 21 20 19 22 25 20 27 26 24 25 33 44 47 52 51 51 50 47 50 54 52 48 37 26 28 33 38 44 47 47 44 45 50 53 60 66 70 73 81 87 91 89 92 95 96 98
22 23 24 26 26 23 25 27 20 18 20 23 25 32 48 53 52 54 56 54 59 61 60 52 47 33 22 32 33 31 35 35 28 28 43 52 56 61 68 75 81 88 90 92 93 94 98 99 92
26 21 23 26 31 36 24 42 23 17 17 40 32 46 54 55 56 58 58 59 61 63 60 52 50 32 17 19 16 11 12 14 15 18 33 43 56 63 68 74 80 86 89 93 96 98 100 100 99
25 22 25 26 30 33 32 34 30 29 46 57 53 56 59 56 55 60 62 61 63 63 61 52 48 39 15 11 12 12 15 12 8 7 19 22 46 58 67 73 76 83 90 97 100 99 100 100 100
20 23 28 32 35 51 35 31 42 72 65 54 53 56 53 53 58 61 63 65 66 68 69 61 50 37 26 13 10 12 14 8 7 6 6 9 18 35 50 70 76 80 85 91 98 99 100 100 100
20 35 62 64 65 57 31 31 59 66 54 52 54 57 59 58 56 57 61 68 69 71 72 67 54 38 29 15 10 10 9 6 5 4 4 5 6 10 20 46 74 78 85 89 94 97 99 100 100
28 36 58 57 62 50 25 35 76 61 57 53 50 49 50 52 54 56 63 69 71 71 69 68 58 36 27 16 11 9 7 5 4 4 4 4 5 7 10 18 39 61 77 85 87 94 98 99 100
23 34 28 46 41 54 44 72 63 56 61 58 55 51 51 52 53 54 62 69 66 64 65 59 49 30 26 15 9 7 7 6 7 6 5 4 5 6 7 8 7 8 24 74 85 87 93 96 97
18 20 37 53 47 56 59 49 80 73 71 72 75 59 55 54 56 58 59 61 60 60 51 37 20 20 18 11 8 8 10 11 13 13 7 5 6 6 6 5 4 6 9 17 40 80 93 95 96
38 41 37 38 64 65 82 77 71 76 70 80 73 59 52 54 54 55 58 62 62 60 43 33 10 9 15 15 13 18 19 18 23 23 16 8 6 8 7 5 4 4 5 10 11 13 31 79 95
30 38 40 76 48 70 81 62 54 69 70 66 60 58 60 55 58 61 61 64 66 56 37 34 14 9 8 11 24 32 31 31 38 35 24 14 7 8 10 7 4 4 5 5 6 8 9 9 19
Wind_Speed
9 7 7 2 3 4 4 7 4 3 5 11 12 8 12 10 4 5 15 14 11 9 8 8 7 5 5 5 3 2 2 2 2 3 3 3 4 5 6 5 5 5 5 5 6 7 7 7 6
9 7 2 2 4 3 5 6 3 2 20 26 21 15 11 5 7 14 13 13 11 9 11 14 8 5 4 3 2 1 1 1 2 3 5 5 5 5 6 6 6 6 7 7 7 8 9 9 8
12 8 0 4 3 4 4 5 3 14 30 8 11 15 8 5 8 5 13 14 11 9 8 11 9 6 5 4 2 1 1 2 3 4 5 6 6 7 7 8 8 8 9 9 10 10 10 9 9
11 2 2 3 4 6 5 8 7 8 8 10 22 10 10 9 10 12 13 12 10 10 9 11 9 7 6 5 4 2 1 1 2 3 5 6 7 8 8 9 10 10 11 11 11 12 12 12 11
10 0 3 2 5 6 8 15 13 5 5 7 2 6 7 13 19 15 15 11 7 11 12 11 10 9 7 5 3 2 1 1 2 3 4 6 8 10 10 11 11 12 13 13 13 14 15 15 14
2 2 4 3 5 7 6 5 15 10 7 9 12 9 6 20 19 14 12 10 9 12 12 12 9 7 5 4 3 1 1 3 3 3 4 5 6 9 11 13 14 14 16 15 15 15 17 17 17
3 4 4 4 4 6 4 8 7 9 9 8 11 5 13 18 18 14 13 13 13 12 11 10 9 8 6 4 2 2 2 4 4 4 5 5 5 8 10 11 13 16 17 17 18 18 19 20 20
5 4 3 2 5 4 5 6 13 9 6 5 3 8 9 23 19 17 15 14 12 11 9 9 8 7 5 4 3 3 3 5 5 5 6 7 7 9 10 11 14 15 15 16 18 19 20 22 22
10 4 2 3 3 4 10 3 9 12 14 7 4 12 15 27 22 20 16 12 9 8 8 7 5 5 4 2 2 3 5 6 7 8 9 10 10 10 12 13 13 15 17 17 19 20 21 23 24
4 3 5 4 2 2 6 5 9 6 11 10 22 23 29 27 22 19 16 11 6 5 3 3 4 4 4 3 3 4 6 7 9 10 12 13 15 16 16 17 18 18 18 19 21 22 23 24 25
4 5 4 2 2 4 5 10 4 11 3 15 28 33 30 26 22 18 15 10 7 5 4 2 1 2 3 3 4 5 6 8 10 12 14 16 18 18 20 20 21 21 22 22 23 24 24 25 25
4 4 4 3 6 3 4 2 4 2 3 15 27 29 31 28 25 20 16 11 7 6 4 3 3 2 3 4 5 6 8 10 12 15 17 19 20 21 21 23 22 23 24 25 26 26 27 28 28
1 4 14 14 15 8 6 2 7 2 12 24 27 30 31 30 27 19 14 10 7 6 4 5 4 4 4 5 6 8 10 12 15 17 18 21 22 22 23 23 24 26 26 27 29 30 30 30 31
8 13 17 15 21 15 5 5 12 10 22 27 30 30 30 31 28 21 14 11 9 6 5 5 6 5 6 6 8 10 12 14 15 18 19 21 22 22 23 25 25 26 28 28 30 31 33 34 34
11 7 8 11 16 8 4 4 8 27 29 30 30 30 29 27 22 18 15 11 8 7 5 5 6 7 7 7 9 10 12 14 17 18 19 21 22 23 25 27 29 29 29 29 30 30 30 32 34
4 3 3 5 3 9 13 11 4 33 34 33 30 31 30 26 22 19 16 12 8 6 6 6 7 8 8 8 9 10 12 14 15 17 19 20 22 24 26 28 30 31 32 32 32 31 31 31 31
4 3 4 9 5 2 3 5 3 33 34 30 33 32 31 29 24 19 15 11 7 5 4 6 7 7 8 9 10 11 11 12 15 17 20 23 24 25 26 28 29 30 31 29 28 27 28 31 32
3 2 4 4 8 8 7 6 1 20 23 29 35 32 32 31 25 19 15 10 5 3 4 4 5 6 6 7 7 8 9 11 14 17 19 22 24 25 26 26 27 28 26 24 23 24 24 25 27
6 4 4 4 4 5 1 4 7 12 11 13 20 27 32 30 24 19 13 8 5 2 3 4 5 5 6 6 7 9 11 13 15 17 19 20 23 25 25 26 27 27 24 21 19 21 23 23 23
6 4 5 5 5 1 6 8 10 9 18 32 34 30 35 34 29 20 14 8 4 2 3 4 4 4 6 8 9 11 12 14 16 19 22 23 23 25 26 26 25 24 24 21 18 18 22 21 18
3 4 2 3 4 5 7 5 2 3 13 23 25 29 34 39 32 23 15 9 3 1 3 3 4 5 6 8 8 8 9 10 14 19 23 25 26 27 26 26 23 23 21 21 20 18 18 21 18
3 0 2 2 4 2 4 6 6 9 8 8 17 32 36 35 28 21 16 10 4 1 1 1 3 5 5 6 6 7 9 11 14 17 20 23 27 29 30 28 25 22 20 18 16 15 16 17 19
4 2 2 2 2 1 3 3 5 8 8 8 9 19 26 30 25 19 14 9 5 3 3 3 3 3 4 5 6 8 9 11 12 13 15 19 23 27 29 31 29 26 23 19 17 15 15 15 17
2 3 5 4 3 2 6 6 4 3 3 6 15 24 29 25 20 15 11 8 6 4 4 5 6 4 5 5 7 7 9 10 11 13 15 17 19 22 25 28 31 30 27 22 18 15 13 14 15
2 4 3 3 2 4 2 3 3 6 4 13 14 16 20 22 20 16 13 12 9 6 6 7 7 6 4 5 5 7 8 10 12 15 16 17 18 19 22 24 26 29 29 25 21 18 15 15 14
6 7 4 3 3 4 9 4 3 2 17 25 26 25 21 18 16 13 14 14 11 7 7 9 9 7 3 4 5 7 8 11 13 15 17 17 18 19 19 20 21 22 25 27 26 22 20 17 17
3 4 6 3 2 2 4 2 3 2 8 19 24 26 24 21 20 19 18 16 12 9 7 9 9 6 2 3 6 6 7 9 12 15 16 17 17 18 19 19 20 20 20 23 26 26 23 21 20
1 2 1 1 3 5 3 3 4 8 8 8 10 21 23 23 24 23 21 18 14 11 9 8 8 5 1 2 4 5 6 8 11 13 15 16 17 17 18 20 20 22 22 21 22 26 25 22 23
5 3 3 1 4 4 2 5 6 11 12 12 16 25 28 28 28 27 24 18 14 11 9 8 7 4 3 2 2 4 6 8 9 12 14 15 15 16 18 20 21 23 24 23 23 23 25 26 26
5 4 3 3 4 3 3 10 6 8 11 18 21 25 26 27 27 26 22 19 13 12 10 7 6 4 4 3 3 4 6 7 8 10 13 14 15 14 16 17 19 22 24 25 25 26 26 26 28
Wind_Direction
349 340 310 284 48 61 289 267 262 307 75 63 107 133 104 26 37 140 138 136 150 176 172 171 172 188 166 151 150 147 176 191 212 226 232 228 213 205 206 213 226 237 248 262 270 270 273 275 281
360 344 343 130 92 53 277 263 67 348 132 113 95 94 54 68 70 123 130 132 140 161 168 178 183 178 161 132 111 80 355 308 269 255 250 250 251 245 234 232 238 248 253 260 266 269 273 274 272
340 337 158 104 110 174 228 276 207 143 156 158 116 80 103 93 113 119 146 146 133 163 157 154 158 163 139 122 98 49 340 311 276 264 266 264 262 259 257 260 263 265 267 271 274 273 273 273 270
346 346 105 100 235 255 236 276 256 130 104 67 109 70 78 130 129 165 160 141 147 166 156 152 150 147 138 126 121 115 62 304 275 271 267 265 262 259 265 269 276 278 279 275 273 275 276 278 271
349 358 47 14 287 269 254 239 238 59 76 47 110 116 88 126 148 150 153 154 167 170 158 146 137 134 130 130 131 106 79 340 323 320 294 274 266 264 258 258 264 273 280 281 279 277 276 276 276
359 65 50 329 269 275 281 19 95 91 105 119 89 98 123 149 156 162 169 184 171 158 150 145 145 150 153 149 143 144 322 308 309 312 301 295 284 273 265 261 258 260 266 270 274 277 278 279 277
123 89 215 227 266 275 312 60 67 66 74 59 118 83 140 159 165 168 175 172 162 157 153 156 164 164 161 173 198 253 280 296 318 309 302 295 283 277 272 266 261 260 262 268 273 275 275 277 278
311 98 1 270 302 270 33 81 95 68 45 95 112 144 173 174 161 161 159 157 156 157 157 158 164 169 187 193 209 251 277 290 293 288 284 287 284 281 278 275 272 267 267 265 261 260 265 269 271
269 50 311 272 325 307 349 66 78 105 103 71 86 148 164 155 159 161 154 151 161 164 160 161 173 184 187 225 226 258 271 277 281 283 285 284 280 278 280 279 276 274 271 268 266 268 265 262 265
126 120 228 222 210 284 352 7 136 127 103 74 98 119 141 151 159 161 158 162 178 195 187 181 184 199 208 225 258 263 275 283 288 290 288 288 288 284 281 280 279 278 274 269 268 266 265 265 264
335 195 214 238 269 3 355 6 23 142 143 177 156 148 150 152 160 163 162 184 204 221 241 265 227 217 233 244 255 272 284 295 301 299 298 296 291 289 286 283 281 278 275 273 269 267 267 266 265
344 328 33 332 332 310 313 58 49 282 283 180 161 154 153 162 163 168 176 180 197 216 239 270 283 275 269 289 291 290 297 302 306 302 302 298 295 293 289 287 286 283 282 281 279 275 270 265 263
223 320 319 310 302 297 254 99 142 32 148 151 153 157 161 163 165 168 176 183 211 230 254 276 286 290 303 316 314 307 303 304 304 301 303 298 298 295 293 292 291 291 289 286 284 282 279 274 267
314 315 307 306 297 294 227 170 129 166 154 156 159 163 164 162 164 165 183 192 215 250 272 289 298 305 311 309 313 314 313 312 309 305 301 297 295 295 294 293 293 291 288 287 284 282 281 278 275
294 312 323 275 272 252 223 267 206 171 166 163 168 167 164 168 172 179 193 196 223 242 281 305 314 322 322 318 316 313 312 311 306 304 305 303 303 305 304 302 301 300 297 295 291 285 281 276 273
327 20 351 316 343 260 169 263 154 168 169 172 174 170 168 166 180 185 192 201 212 250 286 308 317 334 336 327 324 319 312 312 312 313 314 312 311 309 307 306 304 302 300 299 298 295 290 285 280
353 249 226 307 91 354 116 254 21 183 179 173 174 172 164 161 170 177 189 206 220 253 286 311 321 329 332 332 329 325 326 323 323 324 322 321 319 316 313 309 305 304 303 303 299 294 293 291 287
250 280 295 279 318 7 347 307 196 188 190 188 186 176 164 162 168 180 191 199 222 259 293 296 309 334 347 347 343 341 343 345 343 340 339 339 335 333 331 325 320 318 316 312 308 305 300 301 298
270 249 252 251 296 358 150 265 289 207 199 205 200 178 168 166 167 179 182 167 193 252 295 317 342 7 8 3 6 1 6 6 2 359 355 352 347 345 346 342 337 333 332 327 322 318 314 315 318
230 252 284 287 353 325 298 277 232 182 209 211 207 185 173 163 162 166 172 163 196 264 312 352 4 23 23 21 23 23 24 23 22 20 15 9 6 1 358 355 352 349 341 338 331 324 317 312 320
219 204 236 235 323 334 350 312 152 223 230 226 221 191 172 164 162 167 162 159 140 317 359 360 15 17 33 43 43 41 40 39 29 23 22 19 16 13 9 7 3 358 352 343 336 326 320 317 314
230 337 132 31 58 249 56 292 284 300 298 23 160 162 160 160 158 155 158 152 152 227 339 308 1 10 25 27 19 16 17 20 21 20 23 23 21 21 17 14 10 7 358 347 339 326 317 314 311
205 150 109 160 173 350 220 217 286 342 15 21 89 126 134 147 150 151 154 161 164 199 226 250 301 335 0 6 4 9 15 20 16 16 18 22 25 23 20 16 14 12 8 2 351 335 321 311 306
65 40 3 0 119 307 215 195 299 337 306 99 111 121 135 143 146 151 160 166 172 191 255 253 275 317 326 355 6 2 7 14 11 14 15 17 18 20 20 19 18 17 12 10 3 354 340 324 312
114 68 344 341 351 232 254 266 249 318 110 137 116 110 127 144 154 165 179 183 185 205 246 264 283 293 328 1 14 16 14 21 23 21 18 15 16 17 17 16 18 21 19 17 14 12 7 359 341
181 155 169 237 232 277 327 265 216 65 108 122 134 147 159 164 170 180 189 194 191 209 239 256 269 279 326 6 19 27 28 31 28 27 24 22 21 20 18 17 17 18 23 23 20 19 18 19 15
206 154 206 208 245 187 219 20 339 142 134 144 159 168 175 178 182 187 197 201 204 219 243 259 252 259 315 18 34 38 37 32 29 28 26 28 28 27 23 23 23 21 22 29 29 25 21 22 30
155 219 80 343 242 232 265 222 207 191 200 200 187 181 180 184 183 183 196 206 213 232 235 234 235 243 281 59 60 52 40 33 28 26 28 32 32 32 29 30 33 33 31 30 33 37 35 33 37
353 321 5 232 157 217 259 257 209 194 203 209 220 204 191 192 194 193 198 208 215 224 222 220 216 211 196 151 78 60 49 39 31 28 33 35 34 36 35 33 36 39 38 36 33 38 37 39 42
236 253 207 145 253 232 182 265 233 184 202 215 225 217 200 204 202 199 202 213 216 221 214 203 185 171 164 164 136 78 59 51 37 27 38 41 38 40 41 39 40 43 41 39 38 37 37 38 43